Grand Marais, MN

10:26 AM CDT on October 16, 2019 (GMT -0500)
Grand Marais

Weather History for KGNA - September, 2019

Change the Weather History Date:

Tuesday, September 17, 2019

  Actual Average (WUND) Record (WUND)
Temperature  
Mean Temperature 60 °F -  
Max Temperature 66 °F - - (-1)
Min Temperature 53 °F - - (-1)
Degree Days  
Heating Degree Days 6    
Growing Degree Days 10 (Base 50)    
Moisture  
Dew Point 57 °F    
Average Humidity 93    
Maximum Humidity 100    
Minimum Humidity 81    
Precipitation  
Precipitation 0.20 in - - ()
Sea Level Pressure  
Sea Level Pressure 30.00 in    
Wind  
Wind Speed 5 mph (ENE)    
Max Wind Speed 16 mph    
Max Gust Speed 16 mph    
Averages and records for this station are not official NWS values.
T = Trace of Precipitation, MM = Missing Value Source: NWS Daily Summary

Daily Weather History Graph

Daily Weather History Graph

Search for Another Location

Airport or City:

Astronomy

Sep. 17, 2019 Rise Set
Actual Time 6:41 AM CDT 7:09 PM CDT
Civil Twilight 6:10 AM CDT 7:40 PM CDT
Nautical Twilight 5:33 AM CDT 8:17 PM CDT
Astronomical Twilight 4:54 AM CDT 8:55 PM CDT
Moon 8:59 PM CDT (9/17) 9:57 AM CDT (9/17)
Length of Visible Light 13h 30m
Length of Day
12h 28m
Waning Gibbous, 89% of the Moon is Illuminated
Sep 17
Waning Gibbous
Sep 21
Last Quarter
Sep 28
New
Oct 5
First Quarter
Oct 13
Full

Hourly Weather History & Observations

Time (CDT) Temp. Dew Point Humidity Pressure Visibility Wind Dir Wind Speed Gust Speed Precip Events Conditions
12:56 AM 57.0 °F 55.9 °F 96% 30.01 in - Calm Calm - N/A   Unknown
1:56 AM 57.0 °F 55.9 °F 96% 30.02 in - ENE 10.4 mph - N/A   Unknown
2:56 AM 53.1 °F 53.1 °F 100% 30.03 in - ENE 8.1 mph - N/A   Unknown
3:56 AM 53.1 °F 53.1 °F 100% 30.03 in - ENE 5.8 mph - N/A   Unknown
4:56 AM 53.1 °F 53.1 °F 100% 30.03 in - NE 3.5 mph - N/A   Unknown
5:56 AM 54.0 °F 54.0 °F 100% 30.04 in - ENE 3.5 mph - N/A   Unknown
6:56 AM 54.0 °F 53.1 °F 97% 30.05 in - Calm Calm - N/A   Unknown
7:56 AM 55.0 °F 55.0 °F 100% 30.06 in - Calm Calm - N/A   Unknown
8:56 AM 60.1 °F 57.9 °F 93% 30.04 in - NE 5.8 mph - N/A   Unknown
9:56 AM 60.1 °F 57.0 °F 90% 30.04 in - ENE 6.9 mph - N/A   Unknown
10:56 AM 61.0 °F 57.0 °F 87% 30.04 in - ENE 5.8 mph - N/A   Unknown
11:56 AM 61.0 °F 57.0 °F 87% 30.03 in - ENE 3.5 mph - N/A   Unknown
12:56 PM 57.9 °F 55.9 °F 93% 30.03 in - SW 4.6 mph - N/A   Unknown
1:56 PM 60.1 °F 55.9 °F 86% 30.02 in - Calm Calm - N/A   Unknown
2:56 PM 59.0 °F 57.0 °F 93% 30.01 in - Variable 3.5 mph - N/A   Unknown
3:56 PM 62.1 °F 61.0 °F 96% 29.98 in - East 5.8 mph - 0.10 in   Unknown
4:56 PM 59.0 °F 57.0 °F 93% 29.97 in - Variable 3.5 mph - 0.09 in   Unknown
5:56 PM 61.0 °F 59.0 °F 93% 29.94 in - ENE 6.9 mph - 0.01 in   Unknown
6:56 PM 60.1 °F 59.0 °F 96% 29.96 in - ENE 11.5 mph - N/A   Unknown
7:56 PM 66.0 °F 62.1 °F 87% 29.94 in - NE 16.1 mph - N/A   Unknown
8:56 PM 66.0 °F 60.1 °F 81% 29.94 in - NE 8.1 mph 16.1 mph N/A   Unknown
9:56 PM 64.9 °F 59.0 °F 81% 29.93 in - NE 6.9 mph - N/A   Unknown
10:56 PM 62.1 °F 59.0 °F 90% 29.92 in - NE 5.8 mph - N/A   Unknown
11:56 PM 64.0 °F 60.1 °F 87% 29.90 in - NE 5.8 mph - N/A   Unknown